TimeAKST,TemperatureF,Dew PointF,Humidity,Sea Level PressureIn,VisibilityMPH,Wind Direction,Wind SpeedMPH,Gust SpeedMPH,PrecipitationIn,Events,Conditions,WindDirDegrees,DateUTC
12:35 AM,39.2,35.6,87,29.88,10.0,SE,17.3,27.6,0.00,,Overcast,140,2012-12-21 09:35:00
12:56 AM,39.9,35.1,83,29.89,10.0,SSE,16.1,26.5,0.00,,Overcast,150,2012-12-21 09:56:00
1:56 AM,39.9,35.1,83,29.87,10.0,SE,23.0,31.1,N/A,,Overcast,140,2012-12-21 10:56:00
2:56 AM,39.0,36.0,89,29.85,5.0,SE,24.2,32.2,0.00,Rain,Light Rain,130,2012-12-21 11:56:00
3:09 AM,39.2,35.6,87,29.83,4.0,SE,23.0,29.9,0.00,Rain,Light Rain,140,2012-12-21 12:09:00
3:23 AM,39.2,35.6,87,29.83,5.0,SE,21.9,31.1,0.00,Rain,Light Rain,140,2012-12-21 12:23:00
3:56 AM,39.0,36.0,89,29.83,5.0,SE,21.9,28.8,0.00,Rain,Light Rain,140,2012-12-21 12:56:00
4:28 AM,39.2,35.6,87,29.81,5.0,SE,19.6,25.3,0.00,Rain,Light Rain,140,2012-12-21 13:28:00
4:50 AM,39.2,35.6,87,29.79,6.0,SE,24.2,32.2,0.00,Rain,Light Rain,140,2012-12-21 13:50:00
4:56 AM,39.0,36.0,89,29.81,7.0,SE,25.3,32.2,0.00,Rain,Light Rain,130,2012-12-21 13:56:00
5:38 AM,39.2,35.6,87,29.78,10.0,SE,18.4,26.5,0.01,Rain,Light Rain,140,2012-12-21 14:38:00
5:50 AM,39.2,35.6,87,29.78,10.0,SE,13.8,19.6,0.01,Rain,Light Rain,140,2012-12-21 14:50:00
5:56 AM,39.9,35.1,83,29.79,10.0,SSE,10.4,18.4,0.01,Rain,Light Rain,160,2012-12-21 14:56:00
6:11 AM,39.2,35.6,87,29.77,10.0,South,6.9,-,0.00,Rain,Light Rain,180,2012-12-21 15:11:00
6:52 AM,39.2,35.6,87,29.75,10.0,SE,20.7,28.8,0.01,Rain,Light Rain,140,2012-12-21 15:52:00
6:56 AM,39.9,35.1,83,29.77,10.0,SE,19.6,28.8,0.01,Rain,Light Rain,140,2012-12-21 15:56:00
7:56 AM,39.9,35.1,83,29.76,8.0,SE,18.4,29.9,0.01,Rain,Light Rain,140,2012-12-21 16:56:00
8:28 AM,39.2,35.6,87,29.74,8.0,SE,18.4,26.5,0.01,Rain,Light Rain,140,2012-12-21 17:28:00
8:56 AM,39.9,35.1,83,29.77,8.0,SE,20.7,26.5,0.01,Rain,Light Rain,140,2012-12-21 17:56:00
8:58 AM,39.2,35.6,87,29.75,10.0,SE,17.3,26.5,0.00,Rain,Light Rain,140,2012-12-21 17:58:00
9:31 AM,39.2,35.6,87,29.75,6.0,SE,21.9,27.6,0.03,Rain,Light Rain,140,2012-12-21 18:31:00
9:38 AM,39.2,35.6,87,29.75,6.0,SE,18.4,27.6,0.03,Rain,Light Rain,140,2012-12-21 18:38:00
9:56 AM,39.9,35.1,83,29.76,8.0,SE,17.3,26.5,0.04,Rain,Light Rain,140,2012-12-21 18:56:00
10:01 AM,39.2,35.6,87,29.75,7.0,SE,19.6,26.5,0.00,Rain,Light Rain,140,2012-12-21 19:01:00
10:26 AM,39.2,35.6,87,29.75,8.0,SSE,15.0,25.3,0.01,Rain,Light Rain,150,2012-12-21 19:26:00
10:56 AM,39.9,35.1,83,29.78,6.0,SSE,12.7,-,0.01,Rain,Light Rain,150,2012-12-21 19:56:00
11:56 AM,39.9,36.0,86,29.78,6.0,SSE,11.5,19.6,0.01,Rain,Light Rain,150,2012-12-21 20:56:00
12:56 PM,39.9,36.0,86,29.79,6.0,SSE,4.6,-,0.00,Rain,Light Rain,150,2012-12-21 21:56:00
1:16 PM,39.2,35.6,87,29.77,8.0,SE,5.8,-,0.01,Rain,Light Rain,140,2012-12-21 22:16:00
1:56 PM,39.9,36.0,86,29.79,10.0,South,4.6,-,0.03,Rain,Light Rain,180,2012-12-21 22:56:00
2:23 PM,39.2,35.6,87,29.77,8.0,SSE,3.5,-,0.03,Rain,Light Rain,160,2012-12-21 23:23:00
2:56 PM,39.0,35.1,86,29.79,8.0,South,3.5,-,0.06,Rain,Light Rain,190,2012-12-21 23:56:00
3:08 PM,39.2,35.6,87,29.78,8.0,SSW,3.5,-,0.00,Rain,Light Rain,210,2012-12-22 00:08:00
3:56 PM,37.9,34.0,86,29.81,8.0,Calm,Calm,-,0.04,Rain,Light Rain,0,2012-12-22 00:56:00
4:08 PM,37.4,33.8,87,29.80,7.0,Variable,3.5,-,0.00,Rain,Light Rain,0,2012-12-22 01:08:00
4:56 PM,37.9,34.0,86,29.83,10.0,Variable,6.9,-,0.03,Rain,Light Rain,0,2012-12-22 01:56:00
5:23 PM,39.2,33.8,81,29.82,6.0,Variable,4.6,-,0.02,Rain,Light Rain,0,2012-12-22 02:23:00
5:30 PM,39.2,33.8,81,29.82,6.0,NW,15.0,-,0.02,Rain,Light Rain,320,2012-12-22 02:30:00
5:56 PM,39.0,34.0,82,29.85,5.0,NW,16.1,-,0.04,Rain,Light Rain,320,2012-12-22 02:56:00
5:57 PM,39.2,33.8,81,29.84,4.0,NW,18.4,-,0.00,Rain,Light Rain,310,2012-12-22 02:57:00
6:56 PM,37.9,34.0,86,29.88,4.0,NNW,18.4,-,0.05,Rain,Light Rain,330,2012-12-22 03:56:00
7:08 PM,37.4,33.8,87,29.86,5.0,NW,18.4,24.2,0.01,Rain,Light Rain,320,2012-12-22 04:08:00
7:16 PM,37.4,33.8,87,29.87,3.0,NW,19.6,29.9,0.01,Rain,Light Rain,320,2012-12-22 04:16:00
7:40 PM,37.4,33.8,87,29.88,2.5,NW,17.3,-,0.03,Rain,Light Rain,310,2012-12-22 04:40:00
7:56 PM,37.9,34.0,86,29.90,5.0,WNW,17.3,21.9,0.04,Rain,Light Rain,300,2012-12-22 04:56:00
8:01 PM,37.4,33.8,87,29.88,4.0,WNW,17.3,-,0.00,Rain,Light Rain,300,2012-12-22 05:01:00
8:31 PM,37.4,33.8,87,29.90,9.0,WNW,19.6,-,0.01,Rain,Light Rain,300,2012-12-22 05:31:00
8:56 PM,37.9,33.1,83,29.92,9.0,North,21.9,34.5,0.01,Rain,Light Rain,350,2012-12-22 05:56:00
9:56 PM,39.9,30.0,68,29.95,10.0,NNW,24.2,34.5,0.00,,Overcast,340,2012-12-22 06:56:00
10:56 PM,39.9,30.0,68,29.97,10.0,NNW,28.8,34.5,0.00,,Overcast,340,2012-12-22 07:56:00
11:56 PM,39.0,30.0,70,30.00,10.0,NNW,23.0,27.6,N/A,,Overcast,340,2012-12-22 08:56:00